FW8256 Weather Reports


Display with metric or nautical units.
time (UTC)temp
F
wind
direction
speed
MPH
gust
MPH
rain 1hr
in
rain 24hr
in
rain mn
in
humidity
%
barometer
mb
20260904184512 97 150 5.0 11.0 0.00 0.00 0.00 47 1009.3
20260904183007 96 141 3.0 11.0 0.00 0.00 0.00 50 1009.4
20260904181503 96 167 4.0 10.0 0.00 0.00 0.00 49 1009.6
20260904180111 95 138 2.0 9.0 0.00 0.00 0.00 51 1009.8
20260904174607 95 184 3.0 8.0 0.00 0.00 0.00 51 1010.0
20260904173103 94 190 3.0 9.0 0.00 0.00 0.00 53 1010.3
20260904171559 93 148 4.0 9.0 0.00 0.00 0.00 55 1010.3
20260904170047 92 162 3.0 9.0 0.00 0.00 0.00 55 1010.5
20260904164549 91 150 4.0 10.0 0.00 0.00 0.00 56 1010.5
20260904163042 91 167 4.0 11.0 0.00 0.00 0.00 57 1010.7
20260904161539 90 173 4.0 11.0 0.00 0.00 0.00 60 1010.7
20260904160037 89 197 2.0 11.0 0.00 0.00 0.00 61 1010.7
20260904154533 88 158 4.0 11.0 0.00 0.00 0.00 62 1010.5
20260904153029 87 175 3.0 11.0 0.00 0.00 0.00 65 1010.4
20260904151528 86 230 5.0 11.0 0.00 0.00 0.00 66 1010.5
20260904150030 84 172 4.0 11.0 0.00 0.00 0.00 68 1010.4
20260904144521 84 142 3.0 12.0 0.00 0.00 0.00 69 1010.5
20260904143017 82 185 4.0 11.0 0.00 0.00 0.00 71 1010.5
20260904141514 81 220 6.0 12.0 0.00 0.00 0.00 72 1010.4
20260904140014 80 228 4.0 12.0 0.00 0.00 0.00 73 1010.4
20260904134512 79 147 6.0 11.0 0.00 0.00 0.00 74 1010.5
20260904133011 78 194 4.0 11.0 0.00 0.00 0.00 76 1010.4
20260904131510 78 175 4.0 9.0 0.00 0.00 0.00 76 1010.5
20260904130009 77 190 2.0 8.0 0.00 0.00 0.00 78 1010.2
20260904124508 76 360 3.0 9.0 0.00 0.00 0.00 79 1010.1
20260904123006 76 360 2.0 6.0 0.00 0.00 0.00 79 1010.0
20260904121505 76 360 2.0 5.0 0.00 0.00 0.00 79 1009.9
20260904120003 76 360 2.0 6.0 0.00 0.00 0.00 79 1009.9
20260904114503 76 360 2.0 8.0 0.00 0.00 0.00 78 1009.8
20260904113101 76 360 2.0 9.0 0.00 0.00 0.00 78 1009.6
20260904111600 76 360 2.0 6.0 0.00 0.00 0.00 78 1009.7
20260904110057 76 360 2.0 6.0 0.00 0.00 0.00 78 1009.8
20260904104603 77 360 2.0 8.0 0.00 0.00 0.00 78 1009.7
20260904103105 77 360 4.0 8.0 0.00 0.00 0.00 77 1009.5
20260904101554 77 360 2.0 6.0 0.00 0.00 0.00 78 1009.6
20260904100052 77 360 3.0 6.0 0.00 0.00 0.00 78 1009.5
20260904094551 77 360 2.0 4.0 0.00 0.00 0.00 78 1009.6
20260904093050 77 360 2.0 4.0 0.00 0.00 0.00 78 1009.7
20260904091603 78 360 2.0 6.0 0.00 0.00 0.00 78 1009.5
20260904090049 78 360 2.0 6.0 0.00 0.00 0.00 78 1009.4
20260904084546 78 360 2.0 5.0 0.00 0.00 0.00 78 1009.5
20260904083104 78 360 2.0 8.0 0.00 0.00 0.00 79 1009.4
20260904081546 78 360 3.0 9.0 0.00 0.00 0.00 79 1009.3
20260904080043 78 360 3.0 9.0 0.00 0.00 0.00 78 1009.2
20260904074600 79 360 3.0 8.0 0.00 0.00 0.00 78 1009.1
20260904073040 79 360 2.0 6.0 0.00 0.00 0.00 78 1009.3
20260904071538 79 360 2.0 8.0 0.00 0.00 0.00 77 1009.3
20260904070037 79 360 2.0 8.0 0.00 0.00 0.00 77 1009.4
20260904064537 80 360 4.0 11.0 0.00 0.00 0.00 76 1009.6
20260904063033 80 360 2.0 5.0 0.00 0.00 0.00 76 1009.6
20260904061539 80 360 3.0 8.0 0.00 0.00 0.00 75 1009.6
20260904060031 80 360 3.0 9.0 0.00 0.00 0.00 75 1009.6
20260904054534 80 360 3.0 8.0 0.00 0.00 0.00 75 1009.5
20260904053028 81 360 3.0 10.0 0.00 0.00 0.00 74 1009.4
20260904051523 81 360 3.0 9.0 0.00 0.00 0.00 73 1009.3
20260904050022 82 360 2.0 9.0 0.00 0.00 0.00 72 1009.3
20260904044522 82 360 3.0 11.0 0.00 0.00 0.00 72 1009.3
20260904043021 82 360 3.0 8.0 0.00 0.00 0.00 71 1009.2
20260904041528 82 360 1.0 10.0 0.00 0.00 0.00 70 1009.4
20260904040019 83 360 4.0 9.0 0.00 0.00 0.00 69 1009.4
20260904034518 83 360 1.0 6.0 0.00 0.00 0.00 68 1009.5
20260904033017 84 360 2.0 8.0 0.00 0.00 0.00 67 1009.5
20260904031517 84 360 3.0 9.0 0.00 0.00 0.00 66 1009.4
20260904030017 85 360 4.0 11.0 0.00 0.00 0.00 65 1009.3
20260904024517 85 360 4.0 10.0 0.00 0.00 0.00 65 1009.2
20260904023015 86 360 4.0 10.0 0.00 0.00 0.00 64 1008.9
20260904021522 86 360 1.0 8.0 0.00 0.00 0.00 63 1008.8
20260904020017 86 360 3.0 9.0 0.00 0.00 0.00 62 1008.7
20260904014514 87 360 2.0 8.0 0.00 0.00 0.00 62 1008.5
20260904013014 87 360 3.0 11.0 0.00 0.00 0.00 61 1008.1
20260904011515 88 360 4.0 9.0 0.00 0.00 0.00 60 1007.8
20260904010013 89 360 2.0 9.0 0.00 0.00 0.00 58 1007.7
20260904004512 90 360 5.0 11.0 0.00 0.00 0.00 57 1007.4
20260904003010 90 360 2.0 9.0 0.00 0.00 0.00 56 1007.3
20260904001515 91 155 4.0 10.0 0.00 0.00 0.00 54 1007.1
20260904000013 92 167 4.0 11.0 0.00 0.00 0.00 54 1007.1
20260903234509 93 144 6.0 11.0 0.00 0.00 0.00 53 1006.9
20260903233008 93 134 6.0 9.0 0.00 0.00 0.00 50 1007.0
20260903231507 94 164 5.0 9.0 0.00 0.00 0.00 50 1006.9
20260903230012 94 138 4.0 8.0 0.00 0.00 0.00 50 1006.8
20260903224507 95 158 6.0 13.0 0.00 0.00 0.00 49 1006.8
20260903223006 95 180 5.0 11.0 0.00 0.00 0.00 49 1006.8
20260903221505 95 216 3.0 9.0 0.00 0.00 0.00 50 1006.8
20260903220005 95 120 4.0 11.0 0.00 0.00 0.00 50 1006.9
20260903214502 95 236 5.0 11.0 0.00 0.00 0.00 50 1007.2
20260903213001 96 112 5.0 13.0 0.00 0.00 0.00 49 1007.2
20260903211600 96 192 3.0 9.0 0.00 0.00 0.00 49 1007.1
20260903210100 96 142 3.0 11.0 0.00 0.00 0.00 49 1007.3
20260903204553 95 163 3.0 10.0 0.00 0.00 0.00 50 1007.4
20260903203104 95 173 4.0 10.0 0.00 0.00 0.00 50 1007.6
20260903201548 96 159 4.0 11.0 0.00 0.00 0.00 49 1007.9
20260903200045 96 146 4.0 11.0 0.00 0.00 0.00 50 1007.9
20260903194541 96 161 4.0 11.0 0.00 0.00 0.00 48 1008.1
20260903193037 96 198 2.0 9.0 0.00 0.00 0.00 48 1008.2
20260903191534 96 178 2.0 8.0 0.00 0.00 0.00 49 1008.3
20260903190031 96 167 2.0 8.0 0.00 0.00 0.00 50 1008.5